TimeEST,TemperatureF,Dew PointF,Humidity,Sea Level PressureIn,VisibilityMPH,Wind Direction,Wind SpeedMPH,Gust SpeedMPH,PrecipitationIn,Events,Conditions,WindDirDegrees,DateUTC
12:58 AM,37.9,28.0,68,30.04,10.0,NNE,16.1,25.3,N/A,,Clear,30,2014-01-28 05:58:00
1:58 AM,37.0,25.0,62,30.08,10.0,NNE,17.3,26.5,N/A,,Clear,20,2014-01-28 06:58:00
2:58 AM,36.0,23.0,59,30.10,10.0,NNE,16.1,32.2,N/A,,Clear,20,2014-01-28 07:58:00
3:58 AM,34.0,21.9,61,30.12,10.0,North,19.6,24.2,N/A,,Clear,10,2014-01-28 08:58:00
4:58 AM,33.1,21.0,61,30.15,10.0,NNE,18.4,28.8,N/A,,Partly Cloudy,20,2014-01-28 09:58:00
5:58 AM,33.1,19.9,59,30.17,10.0,NNE,16.1,28.8,N/A,,Overcast,20,2014-01-28 10:58:00
6:58 AM,33.1,19.9,59,30.19,10.0,NNE,21.9,35.7,N/A,,Overcast,20,2014-01-28 11:58:00
7:58 AM,32.0,19.9,61,30.22,10.0,NNE,19.6,34.5,0.00,,Overcast,20,2014-01-28 12:58:00
8:26 AM,30.9,21.0,67,30.23,7.0,NNE,19.6,27.6,0.00,Rain,Light Freezing Rain,20,2014-01-28 13:26:00
8:58 AM,30.9,21.9,69,30.24,10.0,NNE,21.9,31.1,0.00,,Overcast,20,2014-01-28 13:58:00
9:17 AM,30.9,23.0,72,30.24,4.0,NNE,21.9,33.4,0.01,Rain,Light Freezing Rain,20,2014-01-28 14:17:00
9:25 AM,30.0,23.0,75,30.25,5.0,NNE,21.9,33.4,0.01,Rain,Light Freezing Rain,20,2014-01-28 14:25:00
9:58 AM,30.0,24.1,79,30.27,3.0,NNE,20.7,28.8,0.02,Rain,Light Freezing Rain,20,2014-01-28 14:58:00
10:06 AM,30.0,24.1,79,30.26,2.0,NNE,23.0,32.2,0.02,Rain,Light Freezing Rain,20,2014-01-28 15:06:00
10:13 AM,30.0,24.1,79,30.26,3.0,NNE,21.9,31.1,0.02,Rain,Light Freezing Rain,20,2014-01-28 15:13:00
10:26 AM,30.0,24.1,79,30.26,4.0,NNE,17.3,35.7,0.03,Rain,Light Freezing Rain,20,2014-01-28 15:26:00
10:58 AM,30.0,25.0,82,30.27,4.0,NNE,17.3,29.9,0.06,Rain,Light Freezing Rain,20,2014-01-28 15:58:00
11:36 AM,30.0,25.0,82,30.27,3.0,NNE,19.6,29.9,0.01,Rain,Light Freezing Rain,20,2014-01-28 16:36:00
11:58 AM,28.9,25.0,85,30.25,3.0,NNE,17.3,28.8,0.04,Rain,Light Freezing Rain,30,2014-01-28 16:58:00
12:29 PM,28.9,25.0,85,30.22,4.0,NNE,18.4,31.1,0.02,Rain,Light Freezing Rain,30,2014-01-28 17:29:00
12:58 PM,28.0,24.1,85,30.22,6.0,NNE,20.7,39.1,0.02,Rain,Light Freezing Rain,20,2014-01-28 17:58:00
1:15 PM,28.0,24.1,85,30.21,7.0,NNE,20.7,31.1,0.00,,Overcast,20,2014-01-28 18:15:00
1:25 PM,28.0,24.1,85,30.21,4.0,NNE,21.9,28.8,0.01,Rain,Light Freezing Rain,20,2014-01-28 18:25:00
1:37 PM,28.9,24.1,82,30.20,2.5,NNE,18.4,31.1,0.01,Snow,Light Snow,20,2014-01-28 18:37:00
1:58 PM,28.0,24.1,85,30.20,3.0,NNE,23.0,29.9,0.01,,Overcast,20,2014-01-28 18:58:00
2:02 PM,28.0,24.1,85,30.20,4.0,NNE,19.6,31.1,0.00,Rain,Light Freezing Rain,20,2014-01-28 19:02:00
2:14 PM,28.0,24.1,85,30.19,3.0,NNE,19.6,29.9,0.00,Rain,Light Freezing Rain,30,2014-01-28 19:14:00
2:39 PM,28.0,23.0,81,30.18,7.0,NNE,23.0,28.8,0.00,Rain,Light Freezing Rain,20,2014-01-28 19:39:00
2:51 PM,27.0,23.0,85,30.17,10.0,NNE,23.0,29.9,0.00,,Overcast,20,2014-01-28 19:51:00
2:58 PM,27.0,23.0,85,30.19,10.0,NNE,20.7,28.8,0.00,,Overcast,20,2014-01-28 19:58:00
3:58 PM,26.1,23.0,88,30.18,10.0,North,18.4,26.5,0.00,,Overcast,10,2014-01-28 20:58:00
4:58 PM,25.0,21.9,88,30.18,3.0,North,19.6,29.9,0.00,Rain,Light Freezing Rain,10,2014-01-28 21:58:00
5:05 PM,25.0,21.9,88,30.17,2.0,North,18.4,25.3,0.00,Rain,Light Freezing Rain,10,2014-01-28 22:05:00
5:11 PM,25.0,21.9,88,30.17,2.0,North,17.3,-,0.00,,Overcast,10,2014-01-28 22:11:00
5:31 PM,25.0,23.0,92,30.16,4.0,North,17.3,-,0.00,,Overcast,10,2014-01-28 22:31:00
5:33 PM,25.0,21.9,88,30.16,4.0,North,20.7,25.3,0.01,Rain,Light Freezing Rain,10,2014-01-28 22:33:00
5:56 PM,24.8,23.0,93,30.15,3.0,North,16.1,23.0,0.01,Rain,Light Freezing Rain,10,2014-01-28 22:56:00
5:58 PM,25.0,23.0,92,30.16,3.0,North,13.8,23.0,0.01,Rain,Light Freezing Rain,10,2014-01-28 22:58:00
6:11 PM,26.1,23.0,88,30.14,2.0,North,17.3,25.3,0.01,,Overcast,10,2014-01-28 23:11:00
6:18 PM,26.1,24.1,92,30.13,1.5,North,19.6,25.3,0.02,,Overcast,10,2014-01-28 23:18:00
6:36 PM,27.0,25.0,92,30.16,2.5,North,18.4,26.5,0.04,,Overcast,350,2014-01-28 23:36:00
6:43 PM,27.0,25.0,92,30.15,1.8,North,17.3,26.5,0.05,,Overcast,10,2014-01-28 23:43:00
6:51 PM,27.0,25.0,92,30.14,1.8,North,15.0,23.0,0.06,,Overcast,10,2014-01-28 23:51:00
6:58 PM,28.0,25.0,88,30.15,1.8,North,11.5,-,0.06,Snow,Light Snow,350,2014-01-28 23:58:00
7:12 PM,27.0,25.0,92,30.13,1.5,North,20.7,-,0.00,Snow,Light Snow,10,2014-01-29 00:12:00
7:20 PM,27.0,25.0,92,30.14,1.5,North,15.0,20.7,0.00,Snow,Light Snow,350,2014-01-29 00:20:00
7:24 PM,27.0,25.0,92,30.13,2.0,NNE,18.4,-,0.00,Snow,Light Snow,20,2014-01-29 00:24:00
7:39 PM,27.0,24.1,89,30.13,2.5,North,16.1,-,0.00,,Overcast,10,2014-01-29 00:39:00
7:45 PM,27.0,24.1,89,30.13,3.0,North,15.0,24.2,0.00,,Overcast,360,2014-01-29 00:45:00
7:58 PM,26.1,24.1,92,30.12,4.0,North,12.7,21.9,0.00,Snow,Light Snow,360,2014-01-29 00:58:00
8:05 PM,26.1,24.1,92,30.11,3.0,NNE,16.1,-,0.01,Snow,Light Snow,20,2014-01-29 01:05:00
8:10 PM,26.1,24.1,92,30.10,2.5,North,16.1,24.2,0.01,,Overcast,10,2014-01-29 01:10:00
8:19 PM,27.0,24.1,89,30.10,2.0,North,18.4,26.5,0.02,Rain,Light Freezing Rain,10,2014-01-29 01:19:00
8:30 PM,27.0,24.1,89,30.10,2.0,North,17.3,25.3,0.03,Rain,Light Freezing Rain,10,2014-01-29 01:30:00
8:42 PM,26.1,24.1,92,30.11,3.0,North,18.4,24.2,0.04,Rain,Light Freezing Rain,10,2014-01-29 01:42:00
8:45 PM,26.1,24.1,92,30.10,3.0,North,12.7,23.0,0.04,Rain,Light Freezing Rain,360,2014-01-29 01:45:00
8:48 PM,26.1,24.1,92,30.10,2.5,North,12.7,23.0,0.04,Rain,Light Freezing Rain,360,2014-01-29 01:48:00
8:58 PM,26.1,24.1,92,30.11,2.5,North,13.8,-,0.04,,Overcast,360,2014-01-29 01:58:00
9:06 PM,26.1,24.1,92,30.11,2.0,North,17.3,-,0.01,,Overcast,10,2014-01-29 02:06:00
9:08 PM,26.1,24.1,92,30.11,1.8,North,17.3,-,0.01,,Overcast,10,2014-01-29 02:08:00
9:37 PM,25.0,23.0,92,30.12,2.0,North,15.0,-,0.02,,Overcast,360,2014-01-29 02:37:00
9:58 PM,25.0,23.0,92,30.11,2.5,North,16.1,23.0,0.03,,Overcast,360,2014-01-29 02:58:00
10:05 PM,25.0,21.9,88,30.10,3.0,North,19.6,25.3,0.00,,Overcast,360,2014-01-29 03:05:00
10:58 PM,25.0,23.0,92,30.08,4.0,North,15.0,-,0.03,Snow,Light Snow,360,2014-01-29 03:58:00
11:31 PM,26.1,24.1,92,30.07,2.5,North,13.8,-,0.02,,Overcast,350,2014-01-29 04:31:00
11:34 PM,26.1,24.1,92,30.07,2.5,NNW,13.8,-,0.02,,Overcast,340,2014-01-29 04:34:00
11:41 PM,26.1,24.1,92,30.07,2.5,North,13.8,-,0.03,,Overcast,350,2014-01-29 04:41:00